Temperature
9 9 10 10 10 10 10 10 9 9 9 10 10 10 10 10 10 10 10 10 10 10 9 10 10 9 9 9 9 9 9 9 9 7 7 7 7 7 7 7 7 7 7
9 9 9 9 9 9 9 9 9 9 9 9 9 9 9 9 9 9 9 9 9 9 9 9 9 8 9 9 9 9 8 8 8 7 7 7 7 7 7 7 7 7 7
8 8 8 8 8 8 8 8 8 8 8 8 8 8 8 8 8 8 8 8 8 8 8 8 8 8 8 8 8 8 8 8 7 7 7 7 7 7 7 7 7 7 7
7 7 7 7 7 7 7 7 7 7 7 7 7 7 7 7 7 7 7 7 7 7 7 7 7 7 7 7 7 7 7 7 7 7 7 7 6 6 6 7 7 7 6
7 7 7 6 7 7 7 7 7 7 7 7 7 6 6 6 6 7 7 7 7 7 7 7 7 7 7 7 7 7 7 7 7 7 7 6 6 6 6 6 6 6 6
6 6 6 6 6 6 6 6 6 6 6 6 6 6 6 6 6 6 6 6 6 6 6 6 6 7 7 7 7 7 7 7 7 7 6 6 6 6 6 6 6 6 6
6 6 6 6 6 6 6 6 6 6 6 6 6 6 6 6 6 6 6 6 6 6 6 6 6 6 6 7 7 7 6 6 6 6 6 6 6 6 6 6 6 6 6
6 6 6 6 6 5 5 5 5 5 5 5 5 5 5 5 5 6 6 6 6 6 6 6 6 6 6 6 6 6 6 6 6 6 6 6 6 6 6 6 6 6 6
6 6 6 6 5 5 5 5 5 5 5 5 5 5 5 5 5 6 6 6 6 6 6 6 6 6 6 6 6 6 6 6 6 6 6 6 6 6 6 6 6 6 6
6 6 5 5 5 5 5 5 5 5 5 5 5 5 5 5 5 6 6 6 6 6 6 6 6 6 6 6 6 6 6 6 6 6 6 6 6 6 6 6 6 6 6
6 5 5 5 5 5 5 5 5 5 5 5 5 5 5 5 5 6 6 6 6 6 6 6 6 6 6 6 6 6 6 6 6 6 6 6 6 6 6 6 6 6 6
5 5 5 5 5 5 5 5 5 5 5 5 5 5 5 5 5 5 6 6 6 6 6 6 6 6 6 6 6 6 6 6 6 6 6 6 7 7 7 7 7 7 7
5 5 5 5 5 5 5 5 5 5 5 5 5 5 5 5 5 5 5 6 6 6 6 6 6 6 6 6 6 6 6 6 6 6 6 7 7 7 7 7 7 7 7
5 5 5 5 5 5 5 5 5 5 5 5 5 5 5 5 5 5 5 6 6 6 6 6 6 6 6 6 6 6 6 6 6 6 6 7 7 7 7 7 7 7 7
5 5 5 5 5 5 6 6 6 6 6 6 5 5 5 5 5 5 5 5 6 6 6 6 6 6 6 6 6 6 6 6 6 6 6 7 7 7 7 7 7 7 7
6 6 5 5 5 6 6 6 6 6 5 5 5 5 5 5 5 5 5 5 6 6 6 6 6 6 6 6 6 6 6 6 6 6 6 6 6 7 7 7 7 7 7
6 6 6 6 6 6 6 6 6 5 5 5 5 5 5 5 5 5 5 5 6 6 5 5 5 6 6 6 6 6 6 6 6 6 6 6 6 6 7 7 7 7 7
6 6 6 6 6 6 6 6 6 6 5 5 5 5 5 5 5 5 5 5 5 5 5 5 5 5 5 5 5 6 6 6 6 6 6 6 6 6 7 7 7 7 7
6 6 6 6 6 6 6 6 5 5 5 5 5 5 5 5 5 5 5 5 5 5 5 5 5 5 5 5 5 5 5 6 6 6 6 6 6 6 6 7 7 7 7
6 6 6 6 6 6 6 6 6 6 6 5 5 5 5 5 5 5 5 5 5 5 5 5 5 5 5 5 5 5 5 5 5 5 6 6 6 6 6 7 7 7 7
6 6 6 6 6 6 6 6 6 6 6 6 6 6 6 6 6 5 5 5 5 5 5 5 5 5 5 5 5 5 5 5 5 5 5 5 6 6 6 6 7 7 7
6 7 6 6 6 6 6 6 6 6 6 6 6 6 6 6 6 6 5 5 5 5 5 4 4 4 4 4 4 4 4 4 5 5 5 5 5 6 6 6 7 7 7
7 7 7 7 6 6 6 6 6 6 6 6 6 6 6 6 6 6 5 5 5 5 4 4 4 4 4 4 4 4 4 4 5 5 5 5 5 6 6 6 7 7 7
7 7 7 7 7 6 6 6 6 6 6 6 6 6 6 6 6 6 5 5 5 5 4 4 4 4 4 4 4 4 4 4 5 5 5 5 5 6 6 6 7 7 7
7 7 7 7 7 7 7 7 7 7 7 7 7 6 6 6 6 6 6 5 5 5 5 4 4 4 4 4 4 4 4 4 4 5 5 5 5 6 6 6 6 7 7
8 8 7 7 7 7 7 7 7 7 7 7 7 7 7 6 6 6 6 6 5 5 5 5 4 4 4 4 4 4 4 4 4 5 5 5 5 5 6 6 6 6 6
Wind_Speed
9 8 9 9 9 10 10 10 9 9 9 10 10 11 11 11 10 11 11 11 12 10 10 11 10 8 8 6 6 6 5 5 6 1 0 0 0 1 3 4 5 5 5
8 9 9 9 10 10 10 10 10 10 9 10 10 11 11 10 10 10 11 10 11 11 10 10 9 9 9 7 7 7 6 5 5 4 1 1 1 2 2 3 4 4 4
8 9 9 9 10 10 10 9 10 10 10 10 10 11 10 9 10 9 10 10 10 10 9 10 9 10 9 7 7 7 5 5 5 5 2 2 2 2 3 3 4 4 4
8 8 9 8 8 9 9 9 10 10 10 10 10 10 9 9 9 9 9 9 9 9 9 8 8 8 8 7 7 6 6 7 6 5 4 3 2 2 3 3 4 3 3
8 9 8 8 8 9 9 9 9 9 10 9 10 9 8 8 7 8 8 9 9 9 8 8 8 9 10 7 6 5 7 6 5 5 3 3 3 3 2 2 2 3 3
7 8 8 8 9 9 9 9 9 9 9 10 10 9 9 7 10 12 9 8 7 8 8 7 7 9 10 10 10 8 7 6 5 3 2 2 1 1 1 2 2 3 3
6 7 7 7 8 8 9 9 9 8 9 9 9 9 9 8 12 12 11 7 7 6 6 6 6 7 8 6 8 10 8 6 5 5 3 2 2 2 1 2 1 1 2
6 6 6 7 8 8 8 8 7 7 7 7 7 8 8 9 12 12 12 8 7 7 6 6 6 6 6 6 7 7 6 4 2 2 3 4 4 4 3 2 2 2 3
6 6 6 7 8 8 7 6 6 6 6 6 6 7 8 7 10 11 10 7 7 6 5 5 6 6 8 10 8 6 6 5 5 4 3 5 6 6 4 1 2 3 3
5 6 6 6 7 7 6 5 5 5 5 6 7 6 7 6 9 11 10 6 6 5 4 5 7 6 7 8 6 5 5 4 6 7 6 6 4 3 3 4 3 2 1
5 6 6 6 6 6 5 5 6 6 6 6 6 6 6 6 8 10 10 5 4 4 3 3 3 6 7 6 4 2 2 3 3 3 4 4 4 3 3 4 5 4 3
6 6 6 5 5 5 6 5 5 6 6 5 5 5 5 5 7 8 10 8 6 4 2 1 2 5 6 6 3 4 5 4 3 4 4 3 3 3 4 5 5 8 8
7 6 5 5 5 5 5 5 5 5 5 4 4 4 4 4 6 11 11 10 9 4 1 2 4 5 6 5 7 8 6 4 3 3 3 3 3 4 4 4 5 4 5
6 5 5 6 7 7 5 4 4 4 4 5 5 4 3 3 4 4 4 5 7 5 4 5 7 7 6 5 5 5 3 2 1 1 2 3 3 3 3 2 3 3 4
6 6 6 6 7 7 6 5 4 2 4 6 5 4 5 3 1 2 3 3 3 3 3 4 5 4 5 5 4 4 4 4 3 3 3 4 4 4 4 3 2 2 2
6 6 5 5 5 5 6 6 9 6 7 8 8 6 3 4 3 4 5 5 4 4 5 4 3 3 3 3 3 4 3 3 3 3 3 3 3 4 4 3 3 2 2
6 5 5 5 5 5 5 6 4 6 8 8 8 8 6 4 3 4 6 6 6 6 4 2 2 2 2 2 2 2 3 3 3 3 3 4 4 4 3 4 4 3 3
5 6 6 5 5 5 5 4 4 4 3 2 2 3 3 2 2 4 6 6 5 5 2 1 1 1 2 2 2 2 3 4 3 4 4 4 5 4 4 5 4 4 4
5 4 4 5 5 5 5 4 4 4 3 1 1 2 2 2 3 4 4 3 2 2 2 1 1 1 2 3 3 3 3 3 4 4 4 5 5 4 5 5 5 7 4
4 6 6 5 4 4 4 4 4 4 3 2 2 2 1 1 1 2 2 1 2 1 1 2 2 2 2 3 3 3 4 4 5 4 4 5 5 4 5 6 6 5 4
4 4 6 5 4 4 4 5 5 5 4 4 3 4 5 3 2 1 1 2 3 2 2 2 3 3 3 2 3 4 4 3 3 4 4 5 5 5 5 6 6 5 4
4 4 4 4 4 4 4 4 5 5 5 4 3 2 4 2 2 2 3 3 3 3 3 4 3 2 2 2 2 3 2 2 3 4 4 5 5 5 6 6 6 5 5
4 4 4 3 3 4 4 3 4 4 4 4 3 2 2 2 3 3 3 3 3 3 4 6 5 3 4 6 5 3 1 1 2 3 4 5 5 5 5 5 6 6 5
5 5 5 5 4 4 3 3 3 4 4 4 4 3 3 4 4 4 4 4 4 4 5 6 6 7 7 5 3 1 1 2 4 5 5 4 5 5 5 5 6 6 5
4 5 6 5 5 5 4 4 4 4 4 4 4 4 4 4 4 4 4 5 5 5 6 7 8 8 7 5 2 1 2 4 5 6 6 5 5 5 5 5 5 5 4
5 5 6 5 5 5 5 5 5 5 5 5 4 5 5 5 5 5 4 5 5 5 7 8 9 8 6 4 2 1 3 5 7 7 5 4 4 4 5 4 6 5 4
Wind_Direction
66 71 75 77 80 83 83 83 83 79 77 77 79 80 78 76 75 80 81 80 80 75 72 74 68 64 67 64 74 82 85 102 117 108 333 296 322 299 318 316 306 296 296
66 73 75 77 79 80 81 80 81 81 77 77 77 77 78 76 75 79 83 78 80 78 74 73 68 70 63 61 72 77 83 93 116 116 47 8 336 308 318 325 332 316 296
70 75 76 75 78 80 81 81 81 82 79 76 76 76 75 75 75 77 81 81 80 80 79 79 74 75 68 65 70 74 77 83 88 104 76 22 3 352 4 351 352 347 327
76 77 77 75 78 82 82 82 82 82 81 78 76 75 73 74 75 78 82 81 78 74 74 76 74 78 80 76 74 74 83 79 80 85 70 37 15 351 31 10 354 346 335
84 82 79 77 78 80 81 81 81 82 83 80 79 72 69 70 75 83 83 86 81 76 68 68 72 75 74 76 85 83 88 88 83 81 69 43 18 16 1 334 355 334 329
91 90 88 86 83 82 83 83 83 82 80 79 77 75 68 69 76 79 84 80 80 80 75 63 62 56 57 61 68 79 97 107 108 100 89 80 333 309 322 347 359 11 331
100 97 97 97 92 86 91 86 87 88 85 81 78 77 71 61 72 78 83 88 86 85 81 70 63 50 52 54 56 57 58 81 123 138 137 195 222 244 300 348 349 302 264
104 103 103 102 98 93 91 90 89 89 90 88 81 77 71 58 68 77 84 81 80 78 82 85 77 54 48 68 66 54 40 29 52 150 192 224 232 228 205 225 254 298 304
98 101 102 101 100 98 96 94 92 92 87 84 81 76 70 51 63 79 87 82 79 68 66 69 76 66 62 73 70 56 34 4 8 354 296 271 265 254 224 127 34 48 0
103 103 103 105 108 108 106 100 93 96 93 88 78 70 72 58 62 81 91 92 86 71 52 43 53 63 60 68 74 65 35 342 340 346 353 353 342 314 231 191 171 145 210
108 100 100 102 107 108 100 98 100 96 89 81 77 63 59 58 60 79 90 98 107 91 64 32 10 32 44 51 72 75 299 298 318 340 351 355 353 340 300 246 213 180 188
101 99 99 95 98 103 98 98 102 105 99 89 80 63 43 38 48 67 78 86 105 97 71 0 332 0 18 21 23 3 10 32 36 27 19 357 339 319 301 293 265 236 230
99 97 92 80 75 86 99 102 97 103 109 106 98 86 54 33 34 52 63 67 69 71 6 332 352 10 14 6 2 13 28 40 40 28 356 317 292 287 302 318 325 320 298
113 104 95 88 77 68 73 90 106 116 120 119 116 109 83 50 32 27 33 41 38 35 17 9 19 20 22 0 355 6 20 34 63 360 310 307 319 339 345 342 345 347 350
116 111 103 97 97 84 70 59 87 107 157 145 145 140 126 99 28 64 72 44 21 8 27 35 30 25 22 13 7 4 10 21 21 359 355 353 353 356 344 338 352 8 3
119 119 119 115 108 106 100 71 47 63 92 118 134 131 108 129 120 71 49 36 36 61 73 52 32 27 26 20 18 10 6 2 354 1 3 357 352 349 343 342 351 355 328
135 137 137 135 130 127 120 113 91 46 59 81 107 116 120 122 85 51 33 32 52 80 75 56 38 25 24 28 25 14 352 338 346 8 9 357 349 349 354 349 346 340 327
140 148 149 150 149 147 145 140 134 127 101 39 40 102 117 90 41 37 43 55 47 45 69 75 50 29 34 22 4 354 351 357 11 16 12 7 3 359 353 344 340 332 317
139 147 149 154 153 153 152 151 147 143 142 144 16 335 303 346 12 34 69 82 90 63 58 45 9 24 33 28 18 19 26 24 26 26 21 13 7 7 355 343 335 334 335
145 151 146 146 147 149 156 158 159 161 167 180 208 238 280 62 18 3 39 118 133 132 96 58 45 69 65 54 47 48 50 42 31 27 12 3 359 2 351 339 332 330 320
141 139 138 137 146 152 157 165 169 171 181 194 218 225 189 176 212 236 183 163 168 165 136 106 105 92 75 65 63 64 62 41 25 10 360 352 350 346 336 331 326 324 322
143 143 145 148 150 154 157 161 164 173 184 189 210 228 195 178 189 187 181 187 194 188 164 145 140 129 119 110 109 99 66 30 1 350 342 337 336 334 331 332 332 329 327
158 160 155 152 152 155 151 156 164 172 183 193 200 207 195 188 187 188 193 194 186 178 160 150 144 132 124 121 117 118 132 278 298 309 316 323 325 325 325 325 326 327 326
166 168 166 167 164 165 173 182 185 187 187 192 203 208 202 198 197 196 197 194 187 181 168 161 159 156 148 141 123 81 0 317 312 305 302 297 306 311 317 324 326 325 326
169 170 171 174 176 182 191 201 207 208 203 202 206 207 201 196 199 201 199 196 190 187 180 168 163 163 164 163 160 5 349 342 335 327 313 296 297 308 315 321 328 333 341
177 179 180 180 184 189 193 202 211 209 205 207 206 201 197 194 195 200 196 191 188 183 179 178 177 177 179 180 188 340 353 353 351 348 335 312 306 316 326 326 335 346 356
Height
1500 1500 1499 1500 1501 1501 1502 1503 1505 1506 1507 1509 1510 1511 1512 1514 1516 1517 1518 1520 1521 1522 1524 1526 1527 1529 1531 1533 1535 1537 1539 1540 1541 1545 1547 1548 1548 1549 1549 1548 1547 1547 1546
1503 1503 1503 1503 1504 1504 1505 1507 1508 1510 1511 1513 1514 1514 1516 1518 1519 1520 1521 1523 1524 1525 1526 1528 1530 1531 1533 1535 1536 1538 1539 1541 1542 1544 1547 1548 1549 1549 1549 1548 1548 1547 1546
1507 1507 1507 1507 1508 1509 1510 1511 1513 1514 1515 1517 1517 1518 1520 1521 1523 1524 1525 1526 1527 1528 1530 1531 1533 1534 1535 1537 1539 1540 1541 1543 1544 1546 1547 1549 1549 1550 1549 1549 1548 1547 1546
1510 1510 1511 1511 1512 1513 1514 1516 1517 1518 1519 1520 1521 1523 1524 1525 1526 1527 1528 1529 1530 1532 1533 1535 1536 1538 1538 1540 1541 1542 1543 1545 1546 1547 1548 1549 1550 1550 1549 1548 1547 1546 1545
1514 1514 1515 1516 1517 1517 1518 1520 1521 1522 1523 1524 1526 1527 1528 1529 1531 1531 1532 1533 1534 1535 1537 1538 1540 1541 1542 1543 1544 1545 1546 1546 1548 1549 1549 1550 1550 1550 1549 1548 1547 1546 1545
1518 1518 1519 1520 1520 1521 1522 1524 1525 1526 1527 1528 1530 1531 1532 1533 1534 1535 1536 1537 1539 1540 1541 1542 1543 1544 1545 1545 1546 1547 1548 1549 1550 1550 1551 1550 1550 1550 1549 1549 1547 1546 1545
1522 1522 1523 1524 1524 1525 1526 1527 1528 1529 1531 1532 1533 1535 1536 1537 1538 1539 1540 1541 1542 1543 1544 1545 1546 1547 1547 1548 1549 1550 1550 1551 1552 1552 1552 1551 1551 1551 1550 1549 1548 1547 1546
1525 1526 1527 1527 1527 1528 1530 1531 1532 1533 1534 1536 1537 1538 1539 1541 1542 1543 1544 1545 1546 1547 1548 1549 1549 1550 1550 1551 1551 1552 1552 1553 1553 1553 1552 1552 1552 1551 1550 1550 1548 1547 1546
1529 1529 1530 1530 1531 1532 1533 1534 1535 1536 1538 1539 1541 1542 1543 1545 1546 1547 1548 1549 1550 1550 1551 1552 1553 1553 1553 1554 1554 1554 1554 1554 1554 1554 1554 1553 1553 1552 1551 1550 1549 1548 1546
1532 1533 1534 1534 1535 1536 1537 1538 1539 1540 1541 1542 1544 1546 1547 1548 1550 1551 1552 1552 1553 1553 1554 1555 1555 1555 1555 1555 1556 1555 1555 1556 1556 1555 1555 1554 1554 1553 1552 1551 1549 1548 1547
1535 1536 1537 1538 1538 1539 1540 1541 1542 1543 1545 1546 1547 1549 1551 1552 1553 1554 1555 1555 1556 1556 1556 1557 1557 1557 1557 1557 1557 1557 1557 1557 1557 1556 1556 1555 1554 1554 1552 1551 1550 1549 1548
1537 1539 1540 1541 1542 1543 1543 1544 1545 1547 1548 1550 1551 1552 1554 1555 1556 1556 1557 1557 1558 1558 1558 1559 1559 1559 1559 1559 1559 1559 1559 1559 1558 1557 1557 1556 1555 1554 1553 1552 1550 1549 1548
1540 1541 1542 1543 1545 1546 1547 1548 1549 1550 1551 1553 1554 1555 1556 1557 1558 1559 1559 1560 1560 1560 1561 1561 1561 1561 1561 1561 1561 1561 1560 1560 1559 1559 1558 1557 1556 1555 1554 1552 1551 1549 1548
1542 1544 1545 1546 1547 1549 1550 1551 1552 1553 1554 1555 1556 1557 1558 1559 1560 1561 1561 1562 1562 1563 1563 1563 1563 1563 1563 1562 1562 1562 1562 1561 1561 1560 1559 1558 1557 1556 1554 1553 1551 1550 1548
1545 1546 1548 1549 1550 1551 1552 1553 1555 1556 1557 1558 1559 1560 1560 1561 1562 1562 1563 1564 1564 1564 1564 1564 1564 1564 1564 1564 1563 1563 1562 1562 1561 1561 1560 1559 1557 1556 1555 1553 1551 1550 1548
1547 1548 1550 1551 1552 1553 1554 1555 1556 1557 1559 1560 1561 1561 1562 1563 1563 1564 1565 1565 1566 1566 1566 1566 1565 1565 1565 1564 1564 1564 1563 1563 1562 1561 1560 1559 1558 1557 1555 1554 1552 1550 1548
1549 1550 1552 1553 1554 1555 1556 1557 1558 1560 1560 1562 1562 1563 1564 1564 1565 1565 1566 1566 1567 1567 1567 1566 1566 1566 1565 1565 1564 1564 1564 1563 1562 1562 1560 1559 1558 1557 1555 1554 1552 1550 1548
1551 1552 1553 1555 1556 1557 1558 1559 1560 1561 1562 1563 1564 1564 1565 1566 1566 1567 1567 1568 1568 1567 1567 1567 1566 1566 1566 1565 1564 1564 1563 1563 1562 1561 1560 1559 1558 1556 1555 1553 1552 1550 1548
1552 1554 1555 1556 1558 1559 1560 1561 1562 1563 1564 1564 1565 1566 1567 1567 1568 1568 1568 1568 1568 1567 1567 1567 1566 1566 1565 1565 1564 1563 1563 1562 1562 1561 1560 1559 1558 1557 1555 1553 1552 1550 1548
1554 1555 1557 1558 1559 1561 1562 1563 1564 1564 1565 1566 1566 1567 1568 1568 1569 1569 1569 1568 1568 1567 1567 1566 1566 1565 1565 1564 1563 1563 1562 1562 1561 1561 1560 1559 1558 1557 1555 1553 1551 1550 1548
1555 1556 1558 1559 1560 1562 1563 1564 1565 1565 1566 1567 1567 1568 1568 1569 1569 1569 1568 1568 1568 1567 1566 1566 1565 1564 1564 1563 1562 1562 1561 1561 1560 1559 1559 1558 1557 1556 1554 1553 1551 1549 1547
1556 1557 1558 1560 1561 1562 1563 1564 1565 1566 1567 1567 1568 1568 1568 1569 1569 1568 1568 1568 1567 1567 1566 1565 1564 1563 1563 1562 1560 1560 1559 1559 1558 1558 1557 1557 1556 1555 1554 1552 1551 1549 1547
1556 1558 1559 1560 1561 1562 1563 1564 1565 1566 1567 1567 1568 1568 1568 1568 1568 1568 1568 1568 1567 1566 1565 1564 1563 1562 1561 1560 1559 1558 1557 1557 1556 1556 1555 1555 1555 1554 1553 1552 1550 1549 1547
1556 1558 1559 1560 1561 1562 1563 1564 1565 1566 1566 1567 1567 1568 1568 1568 1568 1568 1567 1567 1566 1566 1565 1564 1563 1562 1560 1559 1558 1557 1556 1555 1555 1555 1555 1554 1554 1554 1553 1552 1550 1549 1547
1556 1557 1558 1559 1561 1562 1563 1564 1565 1565 1566 1567 1567 1567 1567 1567 1567 1567 1567 1566 1566 1565 1564 1563 1562 1561 1560 1558 1557 1556 1556 1555 1555 1554 1554 1554 1554 1553 1552 1551 1550 1548 1547
1556 1557 1558 1559 1560 1561 1562 1563 1564 1564 1565 1566 1566 1566 1566 1566 1566 1566 1566 1565 1565 1564 1563 1563 1562 1561 1559 1558 1557 1556 1556 1555 1555 1554 1554 1554 1553 1553 1552 1551 1549 1548 1547